Regional Weather Roundup
Issued by NWS

Home | Current Version | Previous Version | Text Only | Print | Product List | Glossary On
Versions: 1 2 3 4 5 6 7 8 9 10 11 12 13 14 15 16 17 18 19 20 21 22 23 24 25 26 27 28 29 30 31 32 33 34 35 36 37 38 39 40 41 42 43 44 45 46 47 48 49 50
000
ASUS43 KMKX 221811
RWRWI

WISCONSIN REGIONAL WEATHER ROUNDUP
NATIONAL WEATHER SERVICE MILWAUKEE/SULLIVAN WI
100 PM CDT FRI AUG 22 2014

NOTE: "FAIR" INDICATES FEW OR NO CLOUDS BELOW 12,000 FEET WITH NO
SIGNIFICANT WEATHER AND/OR OBSTRUCTIONS TO VISIBILITY.

WIZ001-002-006>008-014>016-023>028-221900-
NORTHWEST WISCONSIN

CITY           SKY/WX    TMP DP  RH WIND       PRES   REMARKS
SUPERIOR ARPT  CLOUDY    62  61  95 NE8       30.00S
6HR MIN TEMP:  60; 6HR MAX TEMP:  63; 6HR PCP:  0.01;

ASHLAND        CLOUDY    66  63  90 N6        30.00R FOG
6HR MIN TEMP:  64; 6HR MAX TEMP:  66;

HAYWARD        CLOUDY    73  69  87 CALM      29.98S
6HR MIN TEMP:  68; 6HR MAX TEMP:  72;

SIREN          CLOUDY    69  65  89 N3        29.99R
6HR MIN TEMP:  63; 6HR MAX TEMP:  69;

RICE LAKE      CLOUDY    76  71  84 E3        29.98S
6HR MIN TEMP:  70; 6HR MAX TEMP:  76; 6HR PCP:  0.01;

LADYSMITH      CLOUDY    74  72  93 NW3       29.99R FOG
6HR MIN TEMP:  69; 6HR MAX TEMP:  74;

EAU CLAIRE     SUNNY     82  71  69 S7        29.94S HX  86
6HR MIN TEMP:  71; 6HR MAX TEMP:  82;

MENOMONIE      PTCLDY    82  69  64 SW3       29.94F HX  85
6HR MIN TEMP:  72; 6HR MAX TEMP:  83;

NEW RICHMOND   CLOUDY    73  69  88 CALM      29.98S
6HR MIN TEMP:  67; 6HR MAX TEMP:  73;

OSCEOLA        CLOUDY    72  70  94 N3        30.00S
6HR MIN TEMP:  65; 6HR MAX TEMP:  72;

$$

WIZ003>005-009-010-017-018-221900-
NORTH CENTRAL WISCONSIN

CITY           SKY/WX    TMP DP  RH WIND       PRES   REMARKS
WOODRUFF       CLOUDY    77  74  92 SE3       29.99S
6HR MIN TEMP:  64; 6HR MAX TEMP:  77;

RHINELANDER    CLOUDY    71  68  90 E6        30.00S
6HR MIN TEMP:  63; 6HR MAX TEMP:  71; 6HR PCP:  0.06;

EAGLE RIVER    LGT RAIN  70  68  93 CALM      30.00S
6HR MIN TEMP:  63; 6HR MAX TEMP:  70; 6HR PCP:  0.01;

LAND O LAKES   CLOUDY    72  67  86 E3        30.01S
6HR MIN TEMP:  64; 6HR MAX TEMP:  72;

PHILLIPS       CLOUDY    70  69  95 CALM      29.98R
6HR MIN TEMP:  65; 6HR MAX TEMP:  70;

TOMAHAWK       CLOUDY    71  68  89 CALM      29.99R
6HR MIN TEMP:  64; 6HR MAX TEMP:  72; 6HR PCP:  0.02;

MEDFORD        FOG       71  71  99 S5        29.98S VSB 1/2
6HR MIN TEMP:  66; 6HR MAX TEMP:  71;

MERRILL        CLOUDY    70  70  99 SE3       29.98S FOG
6HR MIN TEMP:  65; 6HR MAX TEMP:  70; 6HR PCP:  0.03;

$$

WIZ029-030-035-036-043>047-221900-
CENTRAL WISCONSIN

CITY           SKY/WX    TMP DP  RH WIND       PRES   REMARKS
WAUSAU         LGT RAIN  75  71  87 S5        29.95F
6HR MIN TEMP:  65; 6HR MAX TEMP:  75;

MOSINEE        CLOUDY    73  73 100 CALM      29.98S FOG
MARSHFIELD     CLOUDY    77  73  87 S8        29.96S
6HR MIN TEMP:  70; 6HR MAX TEMP:  77;

STEVENS POINT  CLOUDY    78  72  82 S5        29.96F HX  80
6HR MIN TEMP:  66; 6HR MAX TEMP:  78;

WAUPACA        PTSUNNY   83  74  73 S3        29.96S HX  90
6HR MIN TEMP:  69; 6HR MAX TEMP:  84;

WAUTOMA        PTSUNNY   86  73  64 S8        29.95S HX  93
6HR MIN TEMP:  71; 6HR MAX TEMP:  86;

WISC RAPIDS    PTSUNNY   83  73  72 SW10      29.96F HX  89
6HR MIN TEMP:  70; 6HR MAX TEMP:  83;

CAMP DOUGLAS   PTSUNNY   82  77  83 S9        29.95F HX  91
$$

WIZ011>013-019>022-031-037>040-048>050-221900-
NORTHEAST WISCONSIN

CITY           SKY/WX    TMP DP  RH WIND       PRES   REMARKS
ANTIGO         FOG       67  67 100 SE5       30.00S VSB 1
6HR MIN TEMP:  63; 6HR MAX TEMP:  67; 6HR PCP:  0.48;

STURGEON BAY   CLOUDY    72  68  88 SE8       30.00S
6HR MIN TEMP:  66; 6HR MAX TEMP:  72;

GREEN BAY      PTSUNNY   79  72  79 S7        29.97S HX  82
6HR MIN TEMP:  66; 6HR MAX TEMP:  79;

MANITOWOC      CLOUDY    73  71  93 E8        29.98S
6HR MIN TEMP:  67; 6HR MAX TEMP:  74;

APPLETON       PTSUNNY   79  73  83 SE8       29.97S FOG     HX  82
CLINTONVILLE   CLOUDY    77  70  78 E3        29.96F HAZE
OSHKOSH        MOSUNNY   80  74  81 E6        29.95F HX  85
6HR MIN TEMP:  70; 6HR MAX TEMP:  82;

$$

WIZ032>034-041-042-053>061-221900-
SOUTHWEST WISCONSIN

CITY           SKY/WX    TMP DP  RH WIND       PRES   REMARKS
LA CROSSE      CLOUDY    79  73  82 CALM      29.94S HX  82
6HR MIN TEMP:  74; 6HR MAX TEMP:  80;

SPARTA         CLOUDY    80  72  77 W3        29.95F HX  84
6HR MIN TEMP:  67; 6HR MAX TEMP:  80;

VIROQUA        CLOUDY    81  77  88 S5        29.97S HX  89
6HR MIN TEMP:  69; 6HR MAX TEMP:  82;

BOSCOBEL       PTSUNNY   89  73  59 S6        29.93F HX  97
6HR MIN TEMP:  70; 6HR MAX TEMP:  90;

PRAIRIE DU CHI PTSUNNY   84  73  68 CALM      29.93S HX  90
6HR MIN TEMP:  71; 6HR MAX TEMP:  86;

PLATTEVILLE    FAIR      82  77  84 SE3       29.96F HX  90
6HR MIN TEMP:  70; 6HR MAX TEMP:  82;

$$

WIZ056-057-062-063-064-067-068-221900-
SOUTH CENTRAL WISCONSIN

CITY           SKY/WX    TMP DP  RH WIND       PRES   REMARKS
BARABOO/DELLS  CLOUDY    86  70  59 S6        29.95S HX  90
6HR MIN TEMP:  70; 6HR MAX TEMP:  87;

LONE ROCK      PTSUNNY   91  74  57 SW6       29.93F HX 100
6HR MIN TEMP:  75; 6HR MAX TEMP:  91;

WATERTOWN      MOSUNNY   84  77  79 S3        29.95F HX  93
6HR MIN TEMP:  71; 6HR MAX TEMP:  84;

MADISON        PTSUNNY   83  74  74 VRB6      29.95S HX  89
6HR MIN TEMP:  73; 6HR MAX TEMP:  83;

MIDDLETON      CLOUDY    86  76  73 SW6       29.95F HX  96
6HR MIN TEMP:  74; 6HR MAX TEMP:  86;

MONROE         CLOUDY    79  73  83 CALM      29.96S HX  82
JANESVILLE     CLOUDY    84  73  70 SW5       29.94F HX  91
$$

WIZ051-052-058>065-066-070>072-221900-
SOUTHEAST WISCONSIN

CITY           SKY/WX    TMP DP  RH WIND       PRES   REMARKS
MILWAUKEE      CLOUDY    76  71  85 SE7       29.96S
6HR MIN TEMP:  71; 6HR MAX TEMP:  76;

WAUKESHA       CLOUDY    81  73  78 E6        29.97S HX  85
MILWAUKEE/TIMM MOSUNNY   79  70  73 SE5       29.96F HX  81
RACINE         CLOUDY    79  72  79 SE6       29.97F HX  82
6HR MIN TEMP:  70; 6HR MAX TEMP:  77;

BURLINGTON     PTSUNNY   79  73  82 CALM      29.95F HX  82
6HR MIN TEMP:  69; 6HR MAX TEMP:  80;

KENOSHA        PTSUNNY   79  74  84 NE7       29.96F HX  82
6HR MIN TEMP:  70; 6HR MAX TEMP:  80;

FOND DU LAC    SUNNY     84  72  67 S7        29.95F HX  89
6HR MIN TEMP:  70; 6HR MAX TEMP:  84;

SHEBOYGAN      CLOUDY    77  71  82 VRB3      29.97S
6HR MIN TEMP:  68; 6HR MAX TEMP:  78;

WEST BEND      MOSUNNY   79  70  73 E5        29.96F HX  81
JUNEAU         PTSUNNY   83  50  31 S7        29.96F HX  81
6HR MIN TEMP:  71; 6HR MAX TEMP:  83;

$$

LSZ147-162-221900-
LAKE SUPERIOR

STATION/POSITION TIME  TEMP    WIND        PRES    WAVE
                       AIR SEA DIR/SP/G            HT/PER
                 (UTC) (F)     (DEG/KT/KT) (MB)    (FT/S)
W MID LAKE BUOY  1750   57 58   30/ 12/ 14 1015.4R   2/ 4
DEVILS ISLAND    1800   59      50/ 11/ 12 1015.8R
PORT WING        1740   59      20/  7/  8 1015.9R
SAXON HARBOR     1740   63        CALM     1015.2R
$$

LMZ867-665-643>646-221900-
LAKE MICHIGAN

STATION/POSITION TIME  TEMP    WIND        PRES    WAVE
                       AIR SEA DIR/SP/G            HT/PER
                 (UTC) (F)     (DEG/KT/KT) (MB)    (FT/S)
N MID LAKE BUOY  1750   68 66  150/  4/  4 1015.2R   0
NORTHPORT PIER   1700   66     120/  3/  3 1015.6R
SISTER BAY       1711   77     180/  7/ 10   N/A
KEWAUNEE LAKESHO 1700   67     110/  2/  3 1014.7R
SHEBOYGAN LAKESH 1800   68 65  140/  4/  5 1015.1S
ATWATER BUOY     1800   71     170/  6/  8 1015.7F
MILWAUKEE LAKESH 1700   70     120/  2/  3   N/A
S MID LAKE BUOY  1750   71 71  170/  2/  4 1014.7R   0
KENOSHA   LAKESH 1800   72      60/  5/  6 1013.9F
$$

TC  - TEMPERATURE IN CELSIUS
VSB - VISIBILITY IN STATUTE MILES
WCI - WIND CHILL INDEX
HX  - HEAT INDEX



USA.gov is the U.S. government's official web portal to all federal, state and local government web resources and services.